Regional Weather Roundup
Issued by NWS Pendleton, OR

Home | Current Version | Previous Version | Text Only | Print | Product List | Glossary On
Versions: 1 2 3 4 5 6 7 8 9 10 11 12 13 14 15 16 17 18 19 20 21 22 23 24 25 26 27 28 29 30 31 32 33 34 35 36 37 38 39 40 41 42 43 44 45 46 47 48 49 50
000
ASUS46 KPDT 210625
RWRPDT
PENDLETON REGIONAL WEATHER ROUNDUP
NATIONAL WEATHER SERVICE PENDLETON OREGON
1100 PM PDT WED AUG 20 2014

NOTE: FAIR INDICATES FEW OR NO CLOUDS BELOW 12,000 FEET WITH NO
SIGNIFICANT WEATHER AND/OR OBSTRUCTIONS TO VISIBILITY.

# INDICATES UNOFFICIAL STATION AND DATA

WAZ520-210710-
EAST SLOPES OF WASHINGTON CASCADES

CITY            SKY/WX      TMP DP  RH  WIND    PRES   REMARKS
#CLE ELUM HS    N/A         59  49  69  W5      29.90R
#CLE ELUM 2NW   N/A         58  48  69  SW2     N/A
#CLE ELUM LAKE  N/A         56  48  74  CALM    29.85R
#CLIFFDEL 2NW   N/A         56  49  77  N5      N/A
#GLENWOOD       N/A         49  45  86  CALM    29.87R
#MANASTASH CYN  N/A         59  38  45  CALM    29.91R
#NELSON         N/A         60  49  67  CALM    29.89R
#NELSON 3SW     N/A         58  47  67  NW1     30.05F
#NILE           N/A         59  48  67  SE1     29.16R
#RONALD 2NW     N/A         58  48  69  W2      29.86R
#TEANAWAY 4NE   N/A         57  50  77  CALM    N/A
#TROUT LAKE 1NE N/A         59  49  69  W6      29.88S
$$

WAZ521-210710-
SIMCOE HIGHLANDS

CITY            SKY/WX      TMP DP  RH  WIND    PRES   REMARKS
#BICKLETON HS   N/A         57  38  49  N5      29.97S
#CENTERVILLE 4W N/A         61  49  65  NW13    29.68S
#CENTERVILLE 1SWN/A         61  48  62  W15     29.84R
#GOLDENDALE     N/A         63  49  60  W9      N/A
#GOLDENDALE 1NE N/A         61  44  53  CALM    N/A
#GOLDENDALE 1S  N/A         59  49  69  W6      29.90R
#GOODNOE HILLS  N/A         64  49  58  W9      29.84R
#LYLE 6NE       N/A         62  50  65  SW12    29.86R
$$

WAZ026-210710-
KITTITAS VALLEY

CITY            SKY/WX      TMP DP  RH  WIND    PRES   REMARKS
ELLENSBURG AP   CLEAR       64  49  58  NW24G35 29.89R
6HR MIN TEMP:   64; 6HR MAX TEMP:   77;

#ELLENSBURG CWU N/A         62  49  62  NW16    29.79R
#ELLENSBURG 3NE N/A         60  50  69  S10     29.89R
#ELLENSBURG     N/A         65  52  63  N5      N/A
#ELLENSBURG 1E  N/A         62  47  58  NW1     N/A
#KITTITAS 3S    N/A         60  49  67  W3      29.81R
#THORP 6N       N/A         58  49  72  NW15G32 29.86R
$$

WAZ027-210710-
YAKIMA VALLEY

CITY            SKY/WX      TMP DP  RH  WIND    PRES   REMARKS
SUNNYSIDE AP    CLEAR       64  46  52  W6      29.85R
YAKIMA AIRPORT  CLEAR       68  47  47  N12     29.87R
6HR MIN TEMP:   64; 6HR MAX TEMP:   87;

YAKIMA-VAGABOND CLEAR       66  44  45  NW6     29.89R
#COWICHE 1N     N/A         63  49  60  NW16    30.05S
#DONALD 2NE     N/A         68  44  42  S5      30.19R
#GRANDVIEW      N/A         68  45  44  NW3     29.83R
#MABTON         N/A         68  49  51  SW5     29.85R
#MOXEE 2E       N/A         63  39  41  N5      29.84R
#NACHES 2SW     N/A         63  51  65  W17G25  29.84S
#OUTLOOK DOT    N/A         N/A N/A N/A NW16    N/A
#SELAH 8E       N/A         56  39  53  SE5     N/A
#TERRACE HTS    N/A         64  47  54  NW3     29.78R
#TOPPENISH      N/A         68  48  49  CALM    29.74R
#WAPATO 4NE     N/A         68  44  42  S5      30.19R
#WEST VALLEY    N/A         67  47  49  N1      29.80R
#W YAKIMA       N/A         65  49  56  W1      29.82R
#WHITE SWAN 5E  N/A         63  51  65  SW1     29.81R
#WILEY CITY 3W  N/A         66  45  47  CALM    29.87R
$$

WAZ028-210710-
LOWER COLUMBIA BASIN...WASHINGTON

CITY            SKY/WX      TMP DP  RH  WIND    PRES   REMARKS
HANFORD         CLEAR       72  42  34  W16     29.82
PASCO           CLEAR       68  51  55  CALM    29.83R
6HR MIN TEMP:   68; 6HR MAX TEMP:   87;

PROSSER AWOS    N/A         68  48  49  SW8     29.88R
RICHLAND AWOS   CLEAR       70  48  46  CALM    29.82R
#BASIN CITY 5SW N/A         68  49  51  W6      29.83R
#BENTON CITY    N/A         65  46  50  W8      29.69R
#CONNELL 5N     N/A         63  50  62  SW1     29.78R
#CONNELL 5NW    N/A         62  50  65  CALM    29.75R
#ELTOPIA        N/A         66  51  58  CALM    29.77R
#ELTOPIA 6NW    N/A         66  48  52  W8      28.80R
#KENNEWICK 3S   N/A         67  50  54  S2      29.81R
#PATERSON       N/A         69  54  59  W7      29.81R
#PROSSER        N/A         71  43  36  W7      29.81R
#SAGEMOOR 2W    N/A         66  53  63  CALM    29.66R
#TOUCHET 2S     N/A         69  47  45  SW15G26 29.78R
#WEST PASCO     N/A         69  50  51  CALM    29.80R
$$

WAZ029-210710-
FOOTHILLS OF THE BLUES...WASHINGTON

CITY            SKY/WX      TMP DP  RH  WIND    PRES   REMARKS
WALLA WALLA AP  CLEAR       70  42  36  S14     29.89R
6HR MIN TEMP:   69; 6HR MAX TEMP:   84;

#COLLEGE PLACE  N/A         70  42  36  S5      29.86R
#DAYTON SCHOOL  N/A         65  33  30  E2      29.88R
#LOWDEN 2SE     N/A         67  47  49  E2      29.82R
#PLEASANT VIEW 1N/A         64  43  46  S10     29.83R
#PRESCOTT       N/A         65  43  45  CALM    29.80R
#SUDBURY        N/A         66  N/A N/A S5      N/A
#WHITMAN COLLEGEN/A         69  45  42  S7      29.88R
#WAITSBURG 8N   N/A         64  28  25  S6      29.79R
#WALLA WALLA 5E N/A         98  49  19  CALM    N/A    HX 95
#WALLA WALLA U  N/A         70  45  41  S2      29.82R
#WHITMAN MISSIONN/A         62  47  58  CALM    29.83R
$$

WAZ030-210710-
BLUE MOUNTAINS...WASHINGTON

CITY            SKY/WX      TMP DP  RH  WIND    PRES   REMARKS
$$

ORZ009-041-WAZ024-210710-
COLUMBIA RIVER GORGE

CITY            SKY/WX      TMP DP  RH  WIND    PRES   REMARKS
HOOD RIVER AP   CLEAR       64  48  56  W5      29.96R
THE DALLES AP   CLEAR       70  47  44  W14     29.89S
6HR MIN TEMP:   70; 6HR MAX TEMP:   79;

#ARLINGTON AIRPON/A         66  50  56  W13     N/A
#ARLINGTON HS   N/A         69  50  51  W10     29.75R
#MARYHILL 2W    N/A         67  50  54  NW17    N/A
#MOSIER 1S      N/A         65  39  38  NW8     30.00R
#MURDOCK        N/A         70  51  51  NW20G28 29.89S
#RUFUS DOT      N/A         N/A N/A N/A NE7     N/A

$$

ORZ510-210710-
NORTH CENTRAL OREGON

CITY            SKY/WX      TMP DP  RH  WIND    PRES   REMARKS
#CHENOWITH 1W   N/A         61  46  58  W37     N/A
#COW CYN RST AREN/A         58  40  51  W2      N/A
#DUFUR 9E       N/A         60  46  60  W8      29.93R
#GRASS VALLEY   N/A         60  44  55  SW1     N/A
#KENT DOT       N/A         52  38  59  SW7     N/A
#MORO SCHOOL    N/A         62  51  67  W13     29.94R
#SHANIKO 5WSW   N/A         55  36  49  W3      N/A
#SHANIKO 4NW    N/A         54  40  59  W7      29.99S
#TYGH VALLEY 2NEN/A         58  42  55  CALM    29.88R
#WAPANITIA AIRPON/A         60  47  62  W6      29.89R
#WASCO DOT      N/A         64  48  56  W12     N/A
#WASCO AIRPORT  N/A         63  45  52  W18     N/A
#WASCO 5NE      N/A         61  47  60  W7      29.85R
$$

ORZ511-210710-
CENTRAL OREGON

CITY            SKY/WX      TMP DP  RH  WIND    PRES   REMARKS
BEND AIRPORT    CLEAR       54  41  61  N3      30.03R
MADRAS AIRPORT  CLEAR       57  41  55  N7      29.99S
REDMOND AIRPORT CLEAR       56  41  57  N3      30.00R
6HR MIN TEMP:   56; 6HR MAX TEMP:   77;

#BEND 6E        N/A         54  42  64  CALM    29.83R
#BEND 1SW       N/A         54  42  64  S1      N/A
#BEND-AWBREY    N/A         58  46  64  N1      29.88R
#BEND-KIM LN    N/A         55  46  72  CALM    29.99R
#CROOKED RVR RANN/A         58  43  57  N17     29.87R
#CULVER         N/A         56  42  59  E2      29.95R
#LAKE BILLY CHINN/A         59  23  25  SE5     30.03R
#POWELL BUTTE   N/A         54  39  57  W1      29.66R
#PRINEVILLE 3N  N/A         59  42  53  CALM    29.84R
#WARM SPRINGS   N/A         63  44  50  CALM    29.94R


ORZ509-210710-
EAST SLOPES OF OREGON CASCADES

CITY            SKY/WX      TMP DP  RH  WIND    PRES   REMARKS
#BLUE BOX PASS  N/A         49  -2  12  W2      N/A
#BLACK BUTTE RNCN/A         57  46  67  CALM    29.88R
#CAMP SHERMAN   N/A         49  43  80  CALM    29.92R
#LA PINE DOT    N/A         52  45  77  SW1     N/A
#LA PINE 4NW    N/A         48  42  80  CALM    29.92R
#LAVA BUTTE DOT N/A         53  44  71  SE2     N/A
#SISTERS AIRPOR N/A         59  51  75  N5      29.98S
#SISTERS ODOT   N/A         59  N/A N/A S2      N/A
#SISTERS 1NW    N/A         58  45  62  VRB10   N/A
#SISTERS 3N     N/A         58  43  57  CALM    N/A
#SUNRIVER       N/A         53  46  77  CALM    29.77R
#SUTTLE LK DOT  N/A         51  43  74  W21G28  N/A
#TUMALO 3W      N/A         56  41  57  NW2     29.78R
#WANOGA BUTTE D N/A         51  40  66  CALM    N/A

$$

ORZ044-210710-
LOWER COLUMBIA BASIN...OREGON

CITY            SKY/WX      TMP DP  RH  WIND    PRES   REMARKS
HERMISTON       CLEAR       68  48  49  SW14G24 29.85R
6HR MIN TEMP:   68; 6HR MAX TEMP:   85;

#BOARDMAN SCHOOLN/A         68  50  53  W3      29.84R
#BOARDMAN 3W    N/A         65  52  63  S7      29.56R
#BOARDMAN 8SW   N/A         65  51  60  SW8     29.84R
#ECHO 8SW       N/A         67  46  47  SW6     29.84R
#IONE SCHOOL    N/A         66  46  48  SW10    29.89R
#IRRIGON 4NW    N/A         68  51  55  S10     N/A
#UMATILLA SCHOOLN/A         67  56  68  S1      29.88S
#UMATILLA       N/A         77  47  35  CALM    29.81R
$$

ORZ507-210710-
NORTHERN FOOTHILLS OF THE BLUES

CITY            SKY/WX      TMP DP  RH  WIND    PRES   REMARKS
PENDLETON AIRPT CLEAR       67  43  42  SW13    29.89R
6HR MIN TEMP:   67; 6HR MAX TEMP:   83;

#ADAMS 3WNW     N/A         61  43  51  W1      29.83R
#ATHENA         N/A         64  43  46  CALM    29.85R
#HELIX SCHOOL   N/A         60  42  51  SE7     29.83R
#HELIX 3N       N/A         61  44  53  SW10    29.88R
#HOLDMAN 5SE    N/A         64  45  50  SW6     29.89R
#HOLDMAN 6E     N/A         63  45  52  N14     29.65R
#M-F GROVE ELEM N/A         68  41  37  CALM    29.88R
#M-FREEWATER 5SEN/A         63  45  52  CALM    29.90R
#PDT AQUATIC CTRN/A         70  41  35  CALM    29.90R
#PENDLETON DNTN N/A         69  38  32  SW2     29.83R
#PDT SUNRIDGE   N/A         64  43  46  SE2     29.90R
#PENDLETON 7NW  N/A         67  48  50  W7      N/A
#PILOT ROCK     N/A         61  37  41  CALM    29.93R
#TUTUILLA       N/A         60  44  55  S1      29.78R
#UMAPINE 2E     N/A         67  47  49  S1      29.84R
#WESTON SCHOOL  N/A         64  39  40  SW3     29.88R

$$

ORZ508-210710-
SOUTHERN FOOTHILLS OF THE BLUES

CITY            SKY/WX      TMP DP  RH  WIND    PRES   REMARKS
LEXINGTON       CLEAR       63  45  52  S7      29.94R
#AJAX           N/A         61  40  46  W7      29.90R
#CONDON SCHOOL  N/A         57  44  62  SW1     29.93S
#FOSSIL SCHOOL  N/A         54  40  59  CALM    29.95R
#HEPPNER 4NE    N/A         57  42  57  SW1     29.85R
#LEXINGTON 2SE  N/A         59  43  55  S3      29.89R
#MIKKALO        N/A         64  44  48  W12     29.93R
#OLEX 4N        N/A         64  47  54  SW13    29.89R
#RUGGS 5NE      N/A         56  40  55  SW7     30.14S
#RUGGS 2SW      N/A         59  41  51  SW7     29.90R

$$

ORZ502-503-210710-
BLUE MOUNTAINS

CITY            SKY/WX      TMP DP  RH  WIND    PRES   REMARKS
MEACHAM         CLEAR       46  36  68  CALM    29.98S
6HR MIN TEMP:   46; 6HR MAX TEMP:   72;

#BATTLE MTN DOT N/A         51  38  61  CALM    N/A
#HEPPNER 15SE   N/A         52  38  59  CALM    29.91R
#LADD CYN SMT   N/A         57  29  34  NW2     N/A
#LADD CREEK ODOTN/A         55  35  47  S1      N/A
#LONG CREEK HS  N/A         51  39  63  SW5     N/A
#N POWDER DOT   N/A         57  36  45  N9      N/A
#PIKES PEAK     N/A         61  41  48  SW20G26 27.99S
#TOLLGATE       N/A         49  38  66  SW1     29.95S
#TROY SCHOOL    N/A         62  45  54  CALM    29.69R
#UKIAH          N/A         48  36  63  CALM    29.88R
#WESTON 4E      N/A         58  42  55  S3      29.79R
$$

ORZ505-210710-
JOHN DAY BASIN

CITY            SKY/WX      TMP DP  RH  WIND    PRES   REMARKS
JOHN DAY        CLEAR       63  34  34  NW3     29.98R
#JOHN DAY KJDY  N/A         60  47  62  CALM    30.19F
#MONUMENT HS    N/A         61  37  41  CALM    29.94R
#MT. VERNON 5SE N/A         60  32  35  CALM    29.94R
#WINLOCK        N/A         58  40  51  CALM    30.05R
$$

ORZ506-210710-
OCHOCO AND JOHN DAY HIGHLANDS

CITY            SKY/WX      TMP DP  RH  WIND    PRES   REMARKS
#BUCK CREEK DOT N/A         59  42  53  NW5     N/A
#HORSE RIDGE DO N/A         46  35  65  S1      N/A
#KEYES SMT DOT  N/A         53  32  45  W7      N/A
#PAULINA SCHOOL N/A         N/A N/A N/A CALM    29.98S
#PINE MTN OBS   N/A         49  40  71  NW8     N/A
#PRAIRIE CITY   N/A         50  40  68  CALM    29.98R
#SENECA 9NW     N/A         54  31  41  CALM    29.80R
$$

ORZ049-210710-
GRANDE RONDE VALLEY

CITY            SKY/WX      TMP DP  RH  WIND    PRES   REMARKS
LA GRANDE       PTCLDY      59  28  30  N8      29.93R
#COVE           N/A         56  44  64  SE2     29.86R
#COVE SCHOOL    N/A         56  41  57  CALM    29.92R
#COVE 6NW       N/A         55  34  45  CALM    29.86R
#ELGIN 3N       N/A         52  33  48  CALM    29.68R
#ELGIN 1E       N/A         55  37  51  CALM    N/A
#IMBLER SCHOOL  N/A         56  35  45  NW2     29.91R
#ISLAND CITY 4N N/A         56  39  53  CALM    29.76R
#LADD CYN DOT   N/A         61  36  39  SE7     N/A
#LA GRANDE ELEM N/A         62  36  38  W2      29.93R
#UNION 1S       N/A         56  39  53  N1      29.73R
$$

ORZ050-210710-
WALLOWA COUNTY

CITY            SKY/WX      TMP DP  RH  WIND    PRES   REMARKS
JOSEPH AIRPORT  PTCLDY      57  39  51  CALM    30.00R
#ENTERPRISE AP  N/A         57  33  40  CALM    29.93R
#ENTERPRISE HS  N/A         55  42  61  CALM    29.98R
#IMNAHA SCHOOL  N/A         70  35  28  CALM    29.85R
#IMNAHA 10S     N/A         67  37  33  SW1     29.93R
#JOSEPH 3N      N/A         54  41  61  CALM    30.01R
#JOSEPH 3W      N/A         54  40  59  SW1     29.86R
#MT HOWARD 8000 N/A         46  36  68  CALM    30.16R
#PROMISE 1S     N/A         52  37  56  CALM    29.96R
#SHEEP RDG 7000 N/A         49  36  61  CALM    29.82R
#WALLOWA SCHOOL N/A         52  43  71  CALM    30.72R



$$



USA.gov is the U.S. government's official web portal to all federal, state and local government web resources and services.